Flag for Switzerland Weather past 2 weeks in Winterthur, Switzerland

Now
59 °F

Clear.


Feels Like: 59 °F
Forecast: 48 / 72 °F
Wind: 1 mph from North

Location: Zurich-Kloten

Current Time: May 28, 2015 at 11:09:49 PM

Latest Report: May 28, 2015 at 10:20 PM


Visibility: 10 mi

Pressure: 30.04 "Hg

Humidity: 59%

Dew point: 45 °F

Location of WinterthurLocation

Historic Weather in Winterthur — Graph

°F

Winterthur temperature yesterday

Maximum temperature yesterday: 63 °F (at 4:50 PM)
Minimum temperature yesterday: 41 °F (at 6:20 AM)
Average temperature yesterday: 53 °F

Past Weeks' High & Low Weather Summary

 TemperatureHumidityPressure
High75 °F (May 13, 10:20 PM)100% (May 15, 10:50 AM)30.33 "Hg (May 15, 10:50 AM)
Low37 °F (May 28, 5:20 AM)35% (May 28, 3:50 PM)29.77 "Hg (May 18, 5:50 PM)
Average55 °F75%30.07 "Hg
* Reported May 13 9:20 PM — May 28 9:50 PM, Winterthur, Weather by CustomWeather, © 2015

Note: Actual official high and low records may vary slightly from our data, if they occured in-between our weather recording intervals... More about our weather records

Advertising

Winterthur weather history for previous 24 hours

 ConditionsComfort  
Time TempWeatherWind HumidityBarometerVisibility
9:50 PM
Thu, May 28
61 °FSunny.1 mph55%30.04 "Hg10 mi
9:20 PM61 °FPartly sunny.5 mph55%30.01 "HgN/A
8:50 PM61 °FPartly sunny.6 mph59%30.01 "HgN/A
8:20 PM63 °FPartly sunny.6 mph56%30.01 "HgN/A
7:50 PM66 °FPartly sunny.7 mph49%30.01 "HgN/A
7:20 PM68 °FScattered clouds.8 mph46%30.01 "HgN/A
6:50 PM68 °FScattered clouds.9 mph49%30.01 "HgN/A
6:20 PM70 °FScattered clouds.7 mph43%30.01 "HgN/A
5:50 PM70 °FScattered clouds.6 mph40%30.01 "HgN/A
5:20 PM70 °FScattered clouds.8 mph40%30.01 "HgN/A
4:50 PM70 °FScattered clouds.7 mph38%30.01 "HgN/A
4:20 PM70 °FPassing clouds.6 mph38%30.04 "HgN/A
3:50 PM70 °FPassing clouds.7 mph35%30.04 "HgN/A
3:20 PM70 °FPassing clouds.8 mph38%30.04 "HgN/A
2:50 PM68 °FScattered clouds.8 mph38%30.04 "HgN/A
2:20 PM68 °FScattered clouds.7 mph38%30.07 "HgN/A
1:50 PM66 °FPartly sunny.8 mph40%30.07 "HgN/A
1:20 PM64 °FPartly sunny.8 mph43%30.07 "HgN/A
12:50 PM63 °FPartly sunny.7 mph45%30.09 "HgN/A
12:20 PM63 °FPassing clouds.8 mph45%30.09 "HgN/A
11:50 AM63 °FPassing clouds.6 mph49%30.09 "HgN/A
11:20 AM61 °FSunny.3 mph52%30.12 "Hg10 mi
10:50 AM59 °FPassing clouds.5 mph59%30.12 "HgN/A
10:20 AM57 °FPassing clouds.5 mph63%30.12 "HgN/A
9:50 AM55 °FSunny.3 mph63%30.12 "Hg10 mi
9:20 AM55 °FSunny.2 mph67%30.12 "Hg10 mi
8:50 AM54 °FSunny.1 mph72%30.12 "Hg10 mi
8:20 AM48 °FSunny.No wind87%30.12 "Hg10 mi
7:50 AM46 °FSunny.1 mph93%30.12 "Hg10 mi
7:20 AM45 °FSunny.1 mph93%30.12 "Hg10 mi
6:50 AM41 °FSunny.1 mph100%30.12 "Hg10 mi
6:20 AM39 °FFog.No wind100%30.12 "HgN/A
5:20 AM37 °FFog.No wind100%30.12 "HgN/A
4:50 AM39 °FFog.No wind100%30.12 "HgN/A
4:20 AM39 °FFog.No wind100%30.12 "HgN/A
3:50 AM39 °FFog.No wind100%30.12 "HgN/A
3:20 AM41 °FClear.2 mph100%30.12 "Hg10 mi
2:50 AM41 °FClear.1 mph93%30.12 "Hg10 mi
1:50 AM43 °FClear.2 mph100%30.15 "Hg10 mi
1:20 AM45 °FClear.No wind93%30.15 "Hg10 mi
12:50 AM43 °FClear.1 mph93%30.15 "Hg10 mi
12:20 AM46 °FClear.2 mph82%30.15 "Hg10 mi
11:50 PM
Wed, May 27
45 °FClear.2 mph87%30.15 "Hg10 mi
11:20 PM48 °FClear.3 mph76%30.15 "Hg10 mi
Weather by CustomWeather, © 2015

See weather overviewHow to use our weather pages